Flag for Germany Past Weather in Neustadt am Rübenberge, Lower Saxony, Germany — Yesterday and Last 2 Weeks

Now
66 °F

Partly sunny.


Feels Like: 66 °F
Forecast: 56 / 70 °F
Wind: 17 mph from West

Location: Wunstorf Airport

Current Time: Jun 29, 2016 at 2:45:09 PM

Latest Report: Jun 29, 2016 at 1:20 PM


Visibility: N/A

Pressure: 29.86 "Hg

Humidity: 56%

Dew Point: 50 °F

Location of Neustadt am RübenbergeLocation

Past Weather in Neustadt am Rübenberge — Graph

°F

Neustadt am Rübenberge Temperature Yesterday

Maximum temperature yesterday: 70 °F (at 5:20 PM)
Minimum temperature yesterday: 54 °F (at 5:20 AM)
Average temperature yesterday: 62 °F

High & Low Weather Summary for the Past Weeks

 TemperatureHumidityPressure
High90 °F (Jun 23, 3:20 PM)94% (Jun 15, 1:20 AM)30.21 "Hg (Jun 15, 1:20 AM)
Low48 °F (Jun 20, 3:20 AM)40% (Jun 28, 3:20 PM)29.45 "Hg (Jun 14, 5:20 PM)
Average64 °F75%29.92 "Hg
* Reported Jun 14 1:20 PM — Jun 29 1:20 PM, Neustadt am Rübenberge, Weather by CustomWeather, © 2016

Note: Actual official high and low records may vary slightly from our data, if they occured in-between our weather recording intervals... More about our weather records

Advertising

Neustadt am Rübenberge Weather History for the Previous 24 Hours

Scroll right to see more
 ConditionsComfort  
Time TempWeatherWind HumidityBarometerVisibility
1:20 PM
Wed, Jun 29
66 °FPartly sunny.17 mph56%29.86 "HgN/A
12:20 PM64 °FBroken clouds.20 mph64%29.86 "HgN/A
11:20 AM66 °FBroken clouds.20 mph60%29.83 "HgN/A
10:20 AM63 °FBroken clouds.17 mph68%29.83 "HgN/A
9:20 AM64 °FScattered clouds.16 mph73%29.83 "HgN/A
8:20 AM63 °FPassing clouds.9 mph83%29.83 "HgN/A
7:20 AM61 °FPartly sunny.7 mph88%29.80 "HgN/A
6:49 AM59 °FPartly sunny.7 mph94%29.80 "HgN/A
6:20 AM61 °FLight rain. Partly sunny.13 mph94%29.77 "HgN/A
5:20 AM61 °FLight rain. Passing clouds.2 mph88%29.77 "HgN/A
4:20 AM59 °FCool.5 mph94%29.80 "Hg3 mi
3:20 AM61 °FCool.7 mph77%29.80 "Hg4 mi
2:20 AM61 °FCool.8 mph72%29.83 "Hg4 mi
1:20 AM61 °FCool.10 mph68%29.86 "Hg4 mi
12:20 AM61 °FCool.10 mph68%29.89 "Hg4 mi
11:20 PM
Tue, Jun 28
61 °FCool.9 mph68%29.89 "Hg4 mi
10:20 PM61 °FCool.7 mph63%29.92 "Hg4 mi
9:20 PM63 °FMild.7 mph59%29.95 "Hg4 mi
8:20 PM66 °FMild.7 mph52%29.95 "Hg3 mi
7:20 PM68 °FPartly sunny.7 mph46%29.98 "HgN/A
6:20 PM68 °FPartly sunny.5 mph46%29.98 "HgN/A
5:20 PM70 °FPartly sunny.3 mph40%30.01 "HgN/A
4:20 PM68 °FPassing clouds.1 mph43%30.04 "HgN/A
3:20 PM68 °FPassing clouds.5 mph40%30.04 "HgN/A
2:20 PM66 °FScattered clouds.5 mph43%30.04 "HgN/A
Weather by CustomWeather, © 2016

See weather overviewHow to use our weather pages